Weather History for Lee's Summit, MO

Change the Weather History Date:

Friday, February 8, 2013

  Actual Average (KMKC) Record (KMKC)
Temperature  
Mean Temperature 34 °F -  
Max Temperature 39 °F 41 °F 60 °F (1999)
Min Temperature 28 °F 25 °F 3 °F (2011)
Degree Days  
Heating Degree Days 32    
Moisture  
Dew Point 26 °F    
Average Humidity 77    
Maximum Humidity 85    
Minimum Humidity 62    
Precipitation  
Precipitation 0.00 in - - ()
Sea Level Pressure  
Sea Level Pressure 30.31 in    
Wind  
Wind Speed 9 mph (NE)    
Max Wind Speed 15 mph    
Max Gust Speed 22 mph    
Visibility 9 miles    
Events      
Averages and records for this station are not official NWS values.
T = Trace of Precipitation, MM = Missing Value Source: NWS Daily Summary

Daily Weather History Graph

Daily Weather History Graph

Search for Another Location

Airport:

Trip Planner

Search our weather history database for the weather conditions in past years. The results will help you decide how hot, cold, wet, or windy it might be!

Date:

Astronomy

Feb. 08, 2013 Rise Set
Actual Time 7:16 AM CST 5:47 PM CST
Civil Twilight 6:48 AM CST 6:14 PM CST
Nautical Twilight 6:17 AM CST 6:46 PM CST
Astronomical Twilight 5:46 AM CST 7:17 PM CST
Moon 5:45 AM CST (2/8) 4:21 PM CST (2/8)
Length of Visible Light 11h 26m
Length of Day
10h 30m
Waning Crescent, 3% of the Moon is Illuminated
Feb 8
Waning Crescent
Feb 10
New
Feb 17
First Quarter
Feb 25
Full
Mar 4
Last Quarter

Hourly Weather History & Observations

Time (CST) Temp. Windchill Dew Point Humidity Pressure Visibility Wind Dir Wind Speed Gust Speed Precip Events Conditions
12:53 AM 32.0 °F 21.6 °F 26.1 °F 79% 30.22 in 10.0 mi North 15.0 mph 21.9 mph N/A   Overcast
1:53 AM 32.0 °F 23.6 °F 26.1 °F 79% 30.24 in 10.0 mi North 10.4 mph - N/A   Overcast
2:53 AM 32.0 °F 23.0 °F 26.1 °F 79% 30.25 in 10.0 mi NNW 11.5 mph - N/A   Overcast
3:53 AM 30.9 °F 22.8 °F 25.0 °F 79% 30.27 in 10.0 mi NNW 9.2 mph - N/A   Overcast
4:09 AM 30.2 °F 23.4 °F 24.8 °F 80% 30.24 in 10.0 mi NNW 6.9 mph - N/A   Overcast
4:53 AM 32.0 °F 23.6 °F 25.0 °F 75% 30.29 in 10.0 mi North 10.4 mph - N/A   Overcast
6:37 AM 30.2 °F 22.6 °F 24.8 °F 80% 30.30 in 10.0 mi NNE 8.1 mph - N/A   Overcast
6:53 AM 30.9 °F 22.8 °F 25.0 °F 79% 30.32 in 10.0 mi NNE 9.2 mph - N/A   Overcast
7:53 AM 30.9 °F 22.8 °F 26.1 °F 82% 30.34 in 9.0 mi NNE 9.2 mph - N/A   Overcast
8:53 AM 30.9 °F 25.2 °F 25.0 °F 79% 30.37 in 8.0 mi North 5.8 mph - N/A   Overcast
9:53 AM 30.9 °F 23.5 °F 26.1 °F 82% 30.38 in 9.0 mi ENE 8.1 mph - N/A   Overcast
10:53 AM 32.0 °F 26.4 °F 26.1 °F 79% 30.37 in 8.0 mi NE 5.8 mph - N/A   Overcast
11:53 AM 33.1 °F - 26.1 °F 75% 30.36 in 10.0 mi Calm Calm - N/A   Overcast
12:37 PM 35.6 °F - 26.6 °F 70% 30.32 in 10.0 mi Calm Calm - N/A   Overcast
12:53 PM 36.0 °F 32.1 °F 28.0 °F 73% 30.36 in 10.0 mi SSE 4.6 mph - N/A   Overcast
1:41 PM 37.4 °F - 26.6 °F 65% 30.34 in 10.0 mi Calm Calm - N/A   Scattered Clouds
1:53 PM 39.0 °F 35.7 °F 27.0 °F 62% 30.37 in 10.0 mi West 4.6 mph - N/A   Clear
2:53 PM 39.9 °F 35.1 °F 28.0 °F 63% 30.32 in 10.0 mi ENE 6.9 mph - N/A   Clear
3:53 PM 37.9 °F 30.9 °F 28.0 °F 68% 30.30 in 10.0 mi ENE 10.4 mph - N/A   Clear
4:53 PM 36.0 °F 29.6 °F 28.0 °F 73% 30.31 in 10.0 mi ENE 8.1 mph - N/A   Clear
5:53 PM 33.1 °F 26.1 °F 26.1 °F 75% 30.30 in 10.0 mi East 8.1 mph - N/A   Clear
6:53 PM 30.9 °F 23.5 °F 26.1 °F 82% 30.30 in 10.0 mi East 8.1 mph - N/A   Clear
7:53 PM 30.9 °F 22.2 °F 26.1 °F 82% 30.30 in 10.0 mi ESE 10.4 mph - N/A   Clear
8:53 PM 30.0 °F 22.4 °F 25.0 °F 82% 30.28 in 9.0 mi East 8.1 mph - N/A   Clear
9:53 PM 28.9 °F 21.1 °F 25.0 °F 85% 30.29 in 7.0 mi ESE 8.1 mph - N/A   Clear
10:53 PM 28.9 °F 20.4 °F 25.0 °F 85% 30.28 in 6.0 mi ESE 9.2 mph - N/A   Clear
11:53 PM 28.9 °F 21.1 °F 25.0 °F 85% 30.27 in 6.0 mi ESE 8.1 mph - N/A   Clear